Location: Baia Mare
(47.6567°N, 23.5850°E)
Time: 01:37:47
(UTC+03:00)

ISS - Pass Details

Date: 25 July 2018
Orbit: 402 x 408 km, 51.6° (Epoch: 19 July)

Event Time Altitude Azimuth Distance (km) Brightness Sun altitude
Rises 00:31:37 0° 287° (WNW) 2,325 0.5 -21.3°
Reaches altitude 10° 00:33:46 10° 295° (WNW) 1,465 -0.5 -21.3°
Maximum altitude 00:36:55 42° 8° (N) 592 -2.6 -21.5°
Enters shadow 00:38:03 30° 57° (ENE) 766 -2.3 -21.5°
